Time,TemperatureF,DewpointF,PressureIn,WindDirection,WindDirectionDegrees,WindSpeedMPH,WindSpeedGustMPH,Humidity,HourlyPrecipIn,Conditions,Clouds,dailyrainin,SoftwareType,DateUTC
2013-02-06 00:08:00,42.8,42.3,29.83,South,180,1.6,-999.0,98,-99.99,,,0.00,Acu-Link.com,2013-02-06 05:08:00,
2013-02-06 00:24:00,44.6,44.1,29.84,SSW,202,2.0,-999.0,98,-99.99,,,0.00,Acu-Link.com,2013-02-06 05:24:00,
2013-02-06 00:39:00,44.6,44.1,29.83,SSW,202,2.0,-999.0,98,-99.99,,,0.00,Acu-Link.com,2013-02-06 05:39:00,
2013-02-06 00:54:00,44.6,44.1,29.83,SW,225,3.1,-999.0,98,-99.99,,,0.00,Acu-Link.com,2013-02-06 05:54:00,
2013-02-06 01:10:00,42.8,42.3,29.84,SSW,202,2.0,-999.0,98,-99.99,,,0.00,Acu-Link.com,2013-02-06 06:10:00,
2013-02-06 01:25:00,42.8,42.3,29.84,West,270,1.1,-999.0,98,-99.99,,,0.00,Acu-Link.com,2013-02-06 06:25:00,
2013-02-06 01:40:00,42.8,42.3,29.84,WSW,247,1.6,-999.0,98,-99.99,,,0.00,Acu-Link.com,2013-02-06 06:40:00,
2013-02-06 01:55:00,39.2,38.7,29.84,NNW,337,0.0,-999.0,98,-99.99,,,0.00,Acu-Link.com,2013-02-06 06:55:00,
2013-02-06 02:11:00,37.4,36.9,29.84,West,270,0.0,-999.0,98,-99.99,,,0.00,Acu-Link.com,2013-02-06 07:11:00,
2013-02-06 02:26:00,39.2,38.7,29.84,NE,45,0.0,-999.0,98,-99.99,,,0.00,Acu-Link.com,2013-02-06 07:26:00,
2013-02-06 02:41:00,39.2,38.7,29.84,South,180,0.0,-999.0,98,-99.99,,,0.00,Acu-Link.com,2013-02-06 07:41:00,
2013-02-06 02:57:00,41.0,40.5,29.84,SSW,202,1.6,-999.0,98,-99.99,,,0.00,Acu-Link.com,2013-02-06 07:57:00,
2013-02-06 03:12:00,39.2,38.7,29.85,NNE,22,0.0,-999.0,98,-99.99,,,0.00,Acu-Link.com,2013-02-06 08:12:00,
2013-02-06 03:27:00,37.4,36.9,29.84,SSW,202,0.0,-999.0,98,-99.99,,,0.00,Acu-Link.com,2013-02-06 08:27:00,
2013-02-06 03:42:00,35.6,35.1,29.85,West,270,0.0,-999.0,98,-99.99,,,0.00,Acu-Link.com,2013-02-06 08:42:00,
2013-02-06 03:58:00,35.6,35.1,29.85,SW,225,0.0,-999.0,98,-99.99,,,0.00,Acu-Link.com,2013-02-06 08:58:00,
2013-02-06 04:13:00,35.6,35.1,29.86,South,180,0.0,-999.0,98,-99.99,,,0.00,Acu-Link.com,2013-02-06 09:13:00,
2013-02-06 04:28:00,37.4,36.9,29.86,SE,135,2.0,-999.0,98,-99.99,,,0.00,Acu-Link.com,2013-02-06 09:28:00,
2013-02-06 04:43:00,39.2,38.7,29.86,South,180,0.0,-999.0,98,-99.99,,,0.00,Acu-Link.com,2013-02-06 09:43:00,
2013-02-06 04:59:00,37.4,36.9,29.87,SSE,157,0.0,-999.0,98,-99.99,,,0.00,Acu-Link.com,2013-02-06 09:59:00,
2013-02-06 05:14:00,39.2,38.7,29.87,SSW,202,2.7,-999.0,98,-99.99,,,0.00,Acu-Link.com,2013-02-06 10:14:00,
2013-02-06 05:29:00,37.4,36.9,29.88,SW,225,2.0,-999.0,98,-99.99,,,0.00,Acu-Link.com,2013-02-06 10:29:00,
2013-02-06 05:45:00,37.4,36.9,29.88,SW,225,2.7,-999.0,98,-99.99,,,0.00,Acu-Link.com,2013-02-06 10:45:00,
2013-02-06 06:00:00,37.4,36.9,29.89,WSW,247,2.0,-999.0,98,-99.99,,,0.00,Acu-Link.com,2013-02-06 11:00:00,
2013-02-06 06:15:00,37.4,36.9,29.91,ESE,112,0.0,-999.0,98,-99.99,,,0.00,Acu-Link.com,2013-02-06 11:15:00,
2013-02-06 06:31:00,35.6,35.1,29.91,South,180,2.0,-999.0,98,-99.99,,,0.00,Acu-Link.com,2013-02-06 11:31:00,
2013-02-06 06:46:00,35.6,35.1,29.92,SW,225,0.0,-999.0,98,-99.99,,,0.00,Acu-Link.com,2013-02-06 11:46:00,
2013-02-06 07:01:00,35.6,35.1,29.93,SE,135,0.0,-999.0,98,-99.99,,,0.00,Acu-Link.com,2013-02-06 12:01:00,
2013-02-06 07:16:00,35.6,35.1,29.94,SE,135,0.0,-999.0,98,-99.99,,,0.00,Acu-Link.com,2013-02-06 12:16:00,
2013-02-06 07:32:00,35.6,35.1,29.94,West,270,1.1,-999.0,98,-99.99,,,0.00,Acu-Link.com,2013-02-06 12:32:00,
2013-02-06 07:47:00,35.6,35.1,29.95,NW,315,2.7,-999.0,98,-99.99,,,0.00,Acu-Link.com,2013-02-06 12:47:00,
2013-02-06 08:02:00,37.4,36.9,29.95,SSE,157,3.1,-999.0,98,-99.99,,,0.44,Acu-Link.com,2013-02-06 13:02:00,
2013-02-06 08:18:00,41.0,40.5,29.96,SSW,202,0.0,-999.0,98,-99.99,,,0.44,Acu-Link.com,2013-02-06 13:18:00,
2013-02-06 08:33:00,44.6,44.1,29.96,North,0,0.0,-999.0,98,-99.99,,,0.44,Acu-Link.com,2013-02-06 13:33:00,
2013-02-06 08:48:00,46.4,41.8,29.96,NNW,337,2.7,-999.0,84,-99.99,,,0.44,Acu-Link.com,2013-02-06 13:48:00,
2013-02-06 09:04:00,50.0,45.7,29.97,ESE,112,2.0,-999.0,85,-99.99,,,0.44,Acu-Link.com,2013-02-06 14:04:00,
2013-02-06 09:19:00,51.8,42.7,29.98,ESE,112,2.7,-999.0,71,-99.99,,,0.44,Acu-Link.com,2013-02-06 14:19:00,
2013-02-06 09:34:00,51.8,42.0,29.98,ENE,67,2.7,-999.0,69,-99.99,,,0.44,Acu-Link.com,2013-02-06 14:34:00,
2013-02-06 09:49:00,53.6,39.2,29.98,NNE,22,3.1,-999.0,58,-99.99,,,0.44,Acu-Link.com,2013-02-06 14:49:00,
2013-02-06 10:05:00,55.4,38.6,29.98,NW,315,2.7,-999.0,53,-99.99,,,0.44,Acu-Link.com,2013-02-06 15:05:00,
2013-02-06 10:20:00,55.4,38.1,29.98,NE,45,3.6,-999.0,52,-99.99,,,0.44,Acu-Link.com,2013-02-06 15:20:00,
2013-02-06 10:35:00,55.4,36.0,29.99,NNW,337,2.7,-999.0,48,-99.99,,,0.44,Acu-Link.com,2013-02-06 15:35:00,
2013-02-06 10:50:00,57.2,36.6,30.00,SSW,202,2.7,-999.0,46,-99.99,,,0.44,Acu-Link.com,2013-02-06 15:50:00,
2013-02-06 11:06:00,59.0,36.5,30.00,South,180,2.0,-999.0,43,-99.99,,,0.44,Acu-Link.com,2013-02-06 16:06:00,
2013-02-06 11:21:00,59.0,34.7,29.99,WSW,247,1.1,-999.0,40,-99.99,,,0.44,Acu-Link.com,2013-02-06 16:21:00,
2013-02-06 11:36:00,62.6,26.3,29.99,SW,225,6.3,-999.0,25,-99.99,,,0.44,Acu-Link.com,2013-02-06 16:36:00,
2013-02-06 11:51:00,62.6,18.5,29.99,NW,315,4.0,-999.0,18,-99.99,,,0.44,Acu-Link.com,2013-02-06 16:51:00,
2013-02-06 12:07:00,62.6,19.8,29.98,West,270,4.0,-999.0,19,-99.99,,,0.44,Acu-Link.com,2013-02-06 17:07:00,
2013-02-06 12:22:00,62.6,18.5,29.98,NW,315,6.3,-999.0,18,-99.99,,,0.44,Acu-Link.com,2013-02-06 17:22:00,
2013-02-06 12:37:00,62.6,15.8,29.97,West,270,3.1,-999.0,16,-99.99,,,0.44,Acu-Link.com,2013-02-06 17:37:00,
2013-02-06 13:08:00,64.4,14.2,29.96,West,270,7.8,-999.0,14,-99.99,,,0.44,Acu-Link.com,2013-02-06 18:08:00,
2013-02-06 13:23:00,64.4,14.2,29.96,SW,225,2.7,-999.0,14,-99.99,,,0.44,Acu-Link.com,2013-02-06 18:23:00,
2013-02-06 13:39:00,64.4,17.2,29.95,WNW,292,2.0,-999.0,16,-99.99,,,0.44,Acu-Link.com,2013-02-06 18:39:00,
2013-02-06 13:54:00,64.4,15.8,29.95,WNW,292,2.7,-999.0,15,-99.99,,,0.44,Acu-Link.com,2013-02-06 18:54:00,
2013-02-06 14:09:00,64.4,12.5,29.94,ENE,67,2.0,-999.0,13,-99.99,,,0.44,Acu-Link.com,2013-02-06 19:09:00,
2013-02-06 14:24:00,64.4,12.5,29.94,SW,225,4.7,-999.0,13,-99.99,,,0.44,Acu-Link.com,2013-02-06 19:24:00,
2013-02-06 14:40:00,66.2,13.9,29.93,NE,45,5.1,-999.0,13,-99.99,,,0.44,Acu-Link.com,2013-02-06 19:40:00,
2013-02-06 14:55:00,66.2,13.9,29.93,WSW,247,5.6,-999.0,13,-99.99,,,0.44,Acu-Link.com,2013-02-06 19:55:00,
2013-02-06 15:10:00,66.2,12.1,29.93,West,270,2.0,-999.0,12,-99.99,,,0.44,Acu-Link.com,2013-02-06 20:10:00,
2013-02-06 15:26:00,66.2,13.9,29.93,SW,225,5.1,-999.0,13,-99.99,,,0.44,Acu-Link.com,2013-02-06 20:26:00,
2013-02-06 15:41:00,66.2,13.9,29.93,NW,315,2.0,-999.0,13,-99.99,,,0.44,Acu-Link.com,2013-02-06 20:41:00,
2013-02-06 15:56:00,68.0,17.0,29.92,SSE,157,2.0,-999.0,14,-99.99,,,0.44,Acu-Link.com,2013-02-06 20:56:00,
2013-02-06 16:12:00,66.2,13.9,29.92,WSW,247,5.6,-999.0,13,-99.99,,,0.44,Acu-Link.com,2013-02-06 21:12:00,
2013-02-06 16:27:00,66.2,13.9,29.93,West,270,4.7,-999.0,13,-99.99,,,0.44,Acu-Link.com,2013-02-06 21:27:00,
2013-02-06 16:42:00,66.2,13.9,29.93,SSE,157,2.7,-999.0,13,-99.99,,,0.44,Acu-Link.com,2013-02-06 21:42:00,
2013-02-06 16:57:00,66.2,15.6,29.93,SSE,157,4.0,-999.0,14,-99.99,,,0.44,Acu-Link.com,2013-02-06 21:57:00,
2013-02-06 17:13:00,64.4,15.8,29.93,SW,225,2.7,-999.0,15,-99.99,,,0.44,Acu-Link.com,2013-02-06 22:13:00,
2013-02-06 17:28:00,66.2,15.6,29.93,SW,225,2.7,-999.0,14,-99.99,,,0.44,Acu-Link.com,2013-02-06 22:28:00,
2013-02-06 17:43:00,62.6,15.8,29.93,SSW,202,2.0,-999.0,16,-99.99,,,0.44,Acu-Link.com,2013-02-06 22:43:00,
2013-02-06 17:59:00,60.8,18.3,29.93,South,180,2.7,-999.0,19,-99.99,,,0.44,Acu-Link.com,2013-02-06 22:59:00,
2013-02-06 18:14:00,59.0,22.3,29.95,SW,225,1.6,-999.0,24,-99.99,,,0.44,Acu-Link.com,2013-02-06 23:14:00,
2013-02-06 18:29:00,57.2,24.4,29.95,SE,135,0.0,-999.0,28,-99.99,,,0.44,Acu-Link.com,2013-02-06 23:29:00,
2013-02-06 18:45:00,55.4,24.5,29.94,ESE,112,0.0,-999.0,30,-99.99,,,0.44,Acu-Link.com,2013-02-06 23:45:00,
2013-02-06 19:00:00,53.6,25.2,29.95,ESE,112,0.0,-999.0,33,-99.99,,,0.44,Acu-Link.com,2013-02-07 00:00:00,
2013-02-06 19:15:00,53.6,25.9,29.95,SE,135,0.0,-999.0,34,-99.99,,,0.44,Acu-Link.com,2013-02-07 00:15:00,
2013-02-06 19:30:00,53.6,26.6,29.95,East,90,0.0,-999.0,35,-99.99,,,0.44,Acu-Link.com,2013-02-07 00:30:00,
2013-02-06 19:46:00,51.8,25.7,29.95,East,90,1.6,-999.0,36,-99.99,,,0.44,Acu-Link.com,2013-02-07 00:46:00,
2013-02-06 20:01:00,51.8,25.0,29.95,ENE,67,0.0,-999.0,35,-99.99,,,0.44,Acu-Link.com,2013-02-07 01:01:00,
2013-02-06 20:16:00,51.8,25.7,29.96,NNE,22,0.0,-999.0,36,-99.99,,,0.44,Acu-Link.com,2013-02-07 01:16:00,
2013-02-06 20:32:00,50.0,26.0,29.96,NNE,22,1.6,-999.0,39,-99.99,,,0.44,Acu-Link.com,2013-02-07 01:32:00,
2013-02-06 20:47:00,50.0,27.2,29.96,NW,315,0.0,-999.0,41,-99.99,,,0.44,Acu-Link.com,2013-02-07 01:47:00,
2013-02-06 21:02:00,48.2,26.2,29.99,WNW,292,0.0,-999.0,42,-99.99,,,0.44,Acu-Link.com,2013-02-07 02:02:00,
2013-02-06 21:18:00,46.4,26.8,30.00,NNE,22,0.0,-999.0,46,-99.99,,,0.44,Acu-Link.com,2013-02-07 02:18:00,
2013-02-06 21:33:00,44.6,26.6,30.00,North,0,1.6,-999.0,49,-99.99,,,0.44,Acu-Link.com,2013-02-07 02:33:00,
2013-02-06 21:48:00,44.6,27.6,30.00,West,270,0.0,-999.0,51,-99.99,,,0.44,Acu-Link.com,2013-02-07 02:48:00,
2013-02-06 22:03:00,44.6,27.6,30.00,NNE,22,3.1,-999.0,51,-99.99,,,0.44,Acu-Link.com,2013-02-07 03:03:00,
2013-02-06 22:19:00,48.2,26.2,30.00,NNE,22,2.7,-999.0,42,-99.99,,,0.44,Acu-Link.com,2013-02-07 03:19:00,
2013-02-06 22:34:00,50.0,25.4,30.00,NE,45,5.1,-999.0,38,-99.99,,,0.44,Acu-Link.com,2013-02-07 03:34:00,
2013-02-06 22:49:00,51.8,27.0,29.99,NE,45,4.7,-999.0,38,-99.99,,,0.44,Acu-Link.com,2013-02-07 03:49:00,
2013-02-06 23:05:00,51.8,26.4,30.00,East,90,4.7,-999.0,37,-99.99,,,0.44,Acu-Link.com,2013-02-07 04:05:00,
2013-02-06 23:20:00,51.8,26.4,29.99,NE,45,7.2,-999.0,37,-99.99,,,0.44,Acu-Link.com,2013-02-07 04:20:00,
2013-02-06 23:35:00,51.8,27.6,29.99,NE,45,4.0,-999.0,39,-99.99,,,0.44,Acu-Link.com,2013-02-07 04:35:00,
2013-02-06 23:51:00,50.0,25.4,29.99,ENE,67,6.7,-999.0,38,-99.99,,,0.44,Acu-Link.com,2013-02-07 04:51:00,